"Pseudo-MPEC" for CD8W3P2

Created 2025 Apr 27 12:31:07 UT using Find_Orb

Click here for an explanation of pseudo-MPECs

 
 Astrometry: 
     CD8W3P2*1C2025 04 26.32558513 47 51.004+02 24 09.50   ~4Q8V 20.38GVNEOCPG96
     CD8W3P2 1C2025 04 26.33071413 47 58.002+02 24 07.09   ~4Q8V 20.70GVNEOCPG96
     CD8W3P2 1C2025 04 26.33584413 48 04.806+02 24 04.90   ~4Q8V 19.89GVNEOCPG96
     CD8W3P2 1C2025 04 26.34097213 48 11.804+02 24 02.23   ~4Q8Vx20.08GVNEOCPG96
     CD8W3P2 KC2025 04 26.38017413 49 04.318+02 23 43.26   ~4Q9V 20.14GVNEOCPI52
     CD8W3P2 KC2025 04 26.38096813 49 05.372+02 23 42.90   ~4Q9V 20.74GVNEOCPI52
     CD8W3P2 KC2025 04 26.38175513 49 06.416+02 23 42.97   ~4Q9V 20.23GVNEOCPI52
     CD8W3P2 KC2025 04 26.38254113 49 07.511+02 23 41.96   ~4Q9V 20.17GVNEOCPI52
     CD8W3P2 KC2025 04 26.40158613 49 52.118+02 29 20.65   ~4QAV 20.0 GWNEOCP474
     CD8W3P2 KC2025 04 26.40718113 49 59.719+02 29 18.46   ~4QAV 20.1 GWNEOCP474
     CD8W3P2 KC2025 04 26.41280313 50 07.294+02 29 15.54   ~4QAV 20.0 GWNEOCP474
     CD8W3P2 KC2025 04 26.41839713 50 14.906+02 29 13.99   ~4QAV 19.9 GWNEOCP474
     CD8W3P2 KC2025 04 26.95318014 02 25.92 +02 18 21.2    ~4QNV 20.5 GVNEOCPL01
     CD8W3P2 KC2025 04 26.95503114 02 28.29 +02 18 20.5    ~4QNV 20.2 GVNEOCPL01
     CD8W3P2 KC2025 04 26.95762314 02 31.52 +02 18 19.1    ~4QNV 20.3 GVNEOCPL01
     CD8W3P2 KB2025 04 26.96095 14 02 36.036+02 17 53.16   ~4R0H 19.8 GVNEOCPB15
     CD8W3P2 KC2025 04 26.96178214 02 36.84 +02 17 59.0    ~4QNl 20.2 GVNEOCPK62
     CD8W3P2 KB2025 04 26.96667 14 02 43.248+02 17 50.17   ~4R0H 19.8 GVNEOCPB15
     CD8W3P2 KC2025 04 26.96719114 02 43.70 +02 17 56.4    ~4QNl 20.6 GVNEOCPK62
     CD8W3P2 KB2025 04 26.97243 14 02 50.597+02 17 48.48   ~4R0H 19.8 GVNEOCPB15
     CD8W3P2 KC2025 04 26.97258314 02 50.56 +02 17 53.7    ~4QNl 19.6 GVNEOCPK62
     CD8W3P2 KC2025 04 26.97797114 02 57.35 +02 17 50.2    ~4QNl 20.3 GVNEOCPK62
     CD8W3P2 mC2025 04 27.22388814 08 29.994+02 16 51.78   ~4R5l 20.61GVNEOCPI52
     CD8W3P2 mC2025 04 27.22431314 08 30.530+02 16 51.31   ~4R5l 20.48GVNEOCPI52
     CD8W3P2 mC2025 04 27.22473714 08 31.009+02 16 51.20   ~4R5l 20.24GVNEOCPI52
     CD8W3P2 mC2025 04 27.22516514 08 31.546+02 16 51.06   ~4R5l 20.20GVNEOCPI52

Station data:
(474) Mount John Observatory, Lake Tekapo  (S43.987385 E170.464960)  New
   Zealand.  Observers A. C. Gilmore, P. M. Kilmartin. Measurer P. M.
   Kilmartin. 1.0-m f/7.7 reflector + CCD.
(B15) Inastars Observatory, Potsdam (since 2006)  (N52.423521 E13.012900)
   Germany.  Observer B. Thinius. 0.36-m f/5.6 Schmidt-Cassegrain + CCD.
(G96) Mt. Lemmon Survey  (N32.442729 W110.788720)  US/Arizona.  Observer E.
   J. Christensen.  + 10K CCD.
(I52) Steward Observatory, Mt. Lemmon Station  (N32.442570 W110.788920)
   US/Arizona.  Observers T. A. Pruyne, B. M. Africano, E. J. Christensen, G.
   A. Farneth, D. C. Fuls, A. R. Gibbs, A. D. Grauer, H. Gröller, J. A.
   Johnson, R. A. Kowalski, S. M. Larson, G. J. Leonard, D. Rankin, R. L.
   Seaman, F. C. Shelly, K. W. Wierzchoś. 1.0-m prime focus + CCD.
(K62) Teplice Observatory  (N50.638318 E13.846750)  Czech Republic.  Observer
   Z. Moravec. 0.43-m f/4.5 reflector + CCD.
(L01) Višnjan Observatory, Tičan  (N45.290897 E13.749300)  Croatia.
   Observers K. Korlević, D. Pujagic, V. Dobos. Measurers D. Pujagic, K.
   Korlević. 1.0-m f/2.9 reflector + CCD.

Orbital elements:  CD8W3P2
   Perihelion 2025 Apr 7.33078 +/- 0.0259 TT =  7:56:19 (JD 2460772.83078)
Epoch 2025 Apr 27.0 TT = JDT 2460792.5   Earth MOID: 0.0184      AutoNEOCP
M   8.70782257 +/- 0.015            (J2000 ecliptic)
n   0.44271327 +/- 0.00042          Peri.  343.79692 +/- 0.032
a   1.70498680 +/- 0.00108          Node   210.45641 +/- 0.0030
e   0.4046152 +/- 0.000366          Incl.    4.14329 +/- 0.0033
P   2.226/813.152d         H 27.03  G  0.15   U  7.5
q 1.01512319 +/- 6.09e-5    Q 2.39485040 +/- 0.00214
25 of 26 observations 2025 Apr. 26-27 (21.6 hr); mean residual 0".39
Residuals in arcseconds: 
250426 G96  .55-  .02+    250426 474  .15-  .17+    250426 K62  .02-  .20+    
250426 G96  1.3+  .01-    250426 474  .74-  .25-    250426 B15  .68+  .49+    
250426 G96  .21+  .19+    250426 474  .00   .71+    250426 K62  .60+  .21+    
250426 G96( 2.0+  .07-)   250426 L01  .65-  .07+    250426 K62  .28+  .58-    
250426 I52  .09+  .31-    250426 L01  .04-  .29+    250427 I52  .15-  .21+    
250426 I52  .13-  .28-    250426 L01  .51-  .18+    250427 I52  .17+  .06-    
250426 I52  .36-  .17+    250426 B15  .55+  .56-    250427 I52  .35-  .04+    
250426 I52  .19+  .46-    250426 K62  .27-  .10+    250427 I52  .08-  .11+    
250426 474  .28-  .12-    250426 B15  .06-  .70-    

Ephemerides (geocentric):
Date (UTC) HH   RA             Dec           delta  r     elong  mag " sig PA
---- --------  ------------   ------------  ------ ------ -----  --- --------
2025 04 27 13  14 15 07.194   +02 16 19.12  .03301 1.0384 163.8 20.6 .298 141
2025 04 27 14  14 15 59.024   +02 15 56.47  .03310 1.0385 163.8 20.6 .316 139
2025 04 27 15  14 16 50.584   +02 15 33.75  .03318 1.0386 163.8 20.6 .335 137
2025 04 27 16  14 17 41.877   +02 15 10.94  .03327 1.0386 163.8 20.6 .354 135
2025 04 27 17  14 18 32.901   +02 14 48.06  .03336 1.0387 163.8 20.6 .375 134
2025 04 27 18  14 19 23.659   +02 14 25.10  .03344 1.0388 163.8 20.6 .396 132
2025 04 27 19  14 20 14.150   +02 14 02.07  .03353 1.0389 163.8 20.6 .417 131
2025 04 27 20  14 21 04.374   +02 13 38.97  .03362 1.0390 163.8 20.6 .440 130
2025 04 27 21  14 21 54.334   +02 13 15.80  .03371 1.0391 163.8 20.6 .463 128
2025 04 27 22  14 22 44.028   +02 12 52.56  .03380 1.0392 163.8 20.6 .487 127
2025 04 27 23  14 23 33.459   +02 12 29.25  .03389 1.0393 163.7 20.6 .511 126
2025 04 28 00  14 24 22.626   +02 12 05.88  .03398 1.0394 163.7 20.6 .536 125
2025 04 28 01  14 25 11.530   +02 11 42.45  .03407 1.0395 163.7 20.6 .562 124
2025 04 28 02  14 26 00.173   +02 11 18.96  .03416 1.0396 163.7 20.6 .588 123
2025 04 28 03  14 26 48.555   +02 10 55.42  .03426 1.0397 163.7 20.7 .615 122
2025 04 28 04  14 27 36.676   +02 10 31.82  .03435 1.0398 163.7 20.7 .642 121
2025 04 28 05  14 28 24.537   +02 10 08.16  .03444 1.0399 163.6 20.7 .670 121
2025 04 28 06  14 29 12.140   +02 09 44.45  .03453 1.0400 163.6 20.7 .699 120
2025 04 28 07  14 29 59.485   +02 09 20.69  .03463 1.0401 163.6 20.7 .728 119
2025 04 28 08  14 30 46.572   +02 08 56.89  .03472 1.0402 163.6 20.7 .757 119
2025 04 28 09  14 31 33.404   +02 08 33.03  .03482 1.0403 163.5 20.7 .787 118
2025 04 28 10  14 32 19.980   +02 08 09.13  .03491 1.0404 163.5 20.7 .818 117
2025 04 28 11  14 33 06.301   +02 07 45.19  .03501 1.0405 163.5 20.7 .849 117
2025 04 28 12  14 33 52.370   +02 07 21.21  .03510 1.0406 163.4 20.7 .880 116
2025 04 28 13  14 34 38.185   +02 06 57.19  .03520 1.0407 163.4 20.7 .912 116
2025 04 28 14  14 35 23.749   +02 06 33.12  .03530 1.0408 163.4 20.7 .944 115
2025 04 28 15  14 36 09.062   +02 06 09.02  .03539 1.0409 163.3 20.7 .977 115
2025 04 28 16  14 36 54.125   +02 05 44.89  .03549 1.0410 163.3 20.7 1.01 114
2025 04 28 17  14 37 38.939   +02 05 20.72  .03559 1.0411 163.3 20.7 1.04 114
2025 04 28 18  14 38 23.506   +02 04 56.52  .03569 1.0412 163.2 20.8 1.08 113
2025 04 28 19  14 39 07.825   +02 04 32.29  .03579 1.0413 163.2 20.8 1.11 113
2025 04 28 20  14 39 51.899   +02 04 08.02  .03588 1.0414 163.2 20.8 1.15 113
2025 04 28 21  14 40 35.728   +02 03 43.73  .03598 1.0415 163.1 20.8 1.18 112
2025 04 28 22  14 41 19.313   +02 03 19.42  .03608 1.0416 163.1 20.8 1.22 112
2025 04 28 23  14 42 02.655   +02 02 55.08  .03618 1.0417 163.0 20.8 1.25 112
2025 04 29 00  14 42 45.756   +02 02 30.71  .03629 1.0418 163.0 20.8 1.29 111
2025 04 29 01  14 43 28.616   +02 02 06.32  .03639 1.0419 163.0 20.8 1.33 111
2025 04 29 02  14 44 11.236   +02 01 41.91  .03649 1.0420 162.9 20.8 1.36 111
2025 04 29 03  14 44 53.618   +02 01 17.48  .03659 1.0421 162.9 20.8 1.40 110
2025 04 29 04  14 45 35.763   +02 00 53.03  .03669 1.0422 162.8 20.8 1.44 110
2025 04 29 05  14 46 17.671   +02 00 28.56  .03679 1.0423 162.8 20.8 1.47 110
2025 04 29 06  14 46 59.343   +02 00 04.08  .03690 1.0424 162.7 20.8 1.51 110
2025 04 29 07  14 47 40.782   +01 59 39.58  .03700 1.0425 162.7 20.9 1.55 109
2025 04 29 08  14 48 21.987   +01 59 15.06  .03710 1.0426 162.6 20.9 1.59 109
2025 04 29 09  14 49 02.961   +01 58 50.53  .03721 1.0427 162.6 20.9 1.63 109
2025 04 29 10  14 49 43.703   +01 58 25.99  .03731 1.0428 162.6 20.9 1.67 109
2025 04 29 11  14 50 24.216   +01 58 01.44  .03742 1.0429 162.5 20.9 1.71 108
2025 04 29 12  14 51 04.500   +01 57 36.88  .03752 1.0430 162.5 20.9 1.74 108